KA0WUC-13 Weather Reports


time (UTC)temp
F
wind
direction
speed
knots
gust
knots
rain 1hr
in
rain 24hr
in
rain mn
in
humidity
%
barometer
mb
20260510203015 63 111 1.7 6.1 0.00 0.02 0.02 53 1024.0
20260510202016 63 49 2.6 5.2 0.00 0.02 0.02 54 1024.0
20260510201015 62 91 1.7 6.1 0.00 0.02 0.02 57 1024.0
20260510200015 62 106 2.6 7.0 0.00 0.02 0.02 57 1024.0
20260510195015 61 89 4.3 9.6 0.00 0.02 0.02 58 1024.1
20260510194015 60 127 2.6 7.0 0.00 0.02 0.02 60 1024.0
20260510193035 61 39 3.5 7.8 0.00 0.02 0.02 60 1024.2
20260510192015 59 87 4.3 8.7 0.00 0.02 0.02 61 1024.0
20260510191015 59 68 3.5 8.7 0.00 0.02 0.02 64 1023.9
20260510190035 59 58 4.3 7.8 0.00 0.02 0.02 66 1024.1
20260510185015 59 67 4.3 7.8 0.00 0.02 0.02 66 1024.1
20260510184015 58 46 2.6 7.8 0.00 0.02 0.02 65 1024.0
20260510183035 58 88 3.5 8.7 0.00 0.02 0.02 64 1024.0
20260510182015 59 44 3.5 8.7 0.00 0.02 0.02 65 1024.0
20260510181016 57 77 3.5 8.7 0.00 0.02 0.02 66 1023.8
20260510180015 57 30 4.3 7.8 0.00 0.02 0.02 67 1024.0
20260510175015 56 95 3.5 7.8 0.00 0.02 0.02 74 1024.2
20260510174036 55 82 3.5 7.0 0.00 0.02 0.02 78 1024.3
20260510173155 54 103 4.3 7.8 0.00 0.02 0.02 79 1024.3
20260510172015 54 76 3.5 8.7 0.00 0.02 0.02 80 1024.3
20260510171035 54 48 2.6 7.0 0.00 0.02 0.02 80 1024.3
20260510170015 54 77 3.5 7.8 0.00 0.02 0.02 80 1024.5
20260510165015 54 55 2.6 7.8 0.00 0.02 0.02 79 1024.5
20260510164035 53 60 2.6 8.7 0.00 0.02 0.02 80 1024.4
20260510163015 53 61 2.6 7.8 0.00 0.02 0.02 82 1024.3
20260510162015 53 50 3.5 7.8 0.00 0.02 0.02 82 1024.3
20260510161015 52 67 3.5 7.8 0.00 0.02 0.02 82 1024.2
20260510160015 52 53 4.3 7.8 0.00 0.02 0.02 82 1024.0
20260510155015 52 53 3.5 8.7 0.00 0.02 0.02 83 1024.1
20260510154017 52 49 3.5 7.8 0.00 0.02 0.02 82 1024.0
20260510153015 52 75 1.7 5.2 0.00 0.02 0.02 81 1023.8
20260510152015 52 52 0.9 6.1 0.00 0.02 0.02 81 1023.9
20260510151015 52 72 2.6 6.1 0.00 0.02 0.02 81 1023.8
20260510150014 52 64 3.5 7.8 0.00 0.02 0.02 82 1023.9
20260510145015 52 98 2.6 7.8 0.00 0.02 0.02 83 1023.8
20260510144036 52 67 3.5 7.0 0.00 0.02 0.02 83 1023.9
20260510143036 52 92 1.7 7.0 0.00 0.02 0.02 83 1023.9
20260510142017 52 88 2.6 6.1 0.00 0.02 0.02 83 1024.1
20260510141015 52 82 2.6 7.0 0.00 0.02 0.02 84 1024.1
20260510140016 53 65 2.6 5.2 0.00 0.02 0.02 85 1024.2
20260510135017 52 74 0.0 3.5 0.00 0.02 0.02 86 1024.0
20260510134015 52 24 0.9 3.5 0.00 0.02 0.02 86 1023.6
20260510133017 52 8 0.9 2.6 0.00 0.02 0.02 87 1023.7
20260510132034 52 0.0 0.0 0.00 0.02 0.02 87 1023.6
20260510131017 52 0.0 1.7 0.00 0.02 0.02 88 1023.7
20260510130056 51 352 0.9 3.5 0.00 0.02 0.02 88 1023.7
20260510125017 51 0.0 0.0 0.00 0.02 0.02 88 1023.7
20260510124016 51 339 0.0 2.6 0.00 0.02 0.02 88 1023.6
20260510123016 51 337 1.7 4.3 0.00 0.02 0.02 88 1023.7
20260510122016 51 338 1.7 4.3 0.00 0.02 0.02 88 1023.5
20260510121016 51 0.0 0.0 0.00 0.02 0.02 89 1023.2
20260510120016 51 0.0 0.0 0.00 0.02 0.02 88 1023.2
20260510115016 51 0.0 0.0 0.00 0.02 0.02 88 1023.0
20260510114016 51 0.0 0.9 0.00 0.02 0.02 88 1022.8
20260510113016 51 92 0.9 2.6 0.00 0.02 0.02 88 1022.7
20260510112016 51 91 0.9 4.3 0.00 0.02 0.02 87 1022.6
20260510111016 51 48 1.7 5.2 0.00 0.02 0.02 87 1022.5
20260510110016 51 25 1.7 6.1 0.00 0.02 0.02 87 1022.7
20260510105016 51 35 2.6 7.0 0.01 0.02 0.02 87 1023.0
20260510104016 51 346 2.6 7.8 0.02 0.02 0.02 87 1022.8
20260510103037 51 6 2.6 7.0 0.02 0.02 0.02 87 1022.7
20260510102036 51 12 1.7 5.2 0.02 0.02 0.02 86 1022.5
20260510101016 52 357 3.5 10.4 0.02 0.02 0.02 85 1022.8
20260510100016 52 2 3.5 8.7 0.02 0.02 0.02 83 1022.6
20260510095016 53 350 4.3 9.6 0.01 0.01 0.01 80 1022.6
20260510094037 53 340 2.6 7.0 0.00 0.00 0.00 77 1022.5
20260510093016 53 351 2.6 7.0 0.00 0.00 0.00 76 1022.1
20260510092016 53 62 2.6 7.0 0.00 0.00 0.00 75 1021.2
20260510091016 54 79 1.7 7.8 0.00 0.00 0.00 73 1020.8
20260510090036 54 65 3.5 9.6 0.00 0.00 0.00 73 1020.6
20260510085037 54 62 3.5 7.8 0.00 0.00 0.00 73 1020.5
20260510084015 54 67 2.6 9.6 0.00 0.00 0.00 73 1020.3
20260510083016 54 75 5.2 11.3 0.00 0.00 0.00 73 1020.5
20260510082016 54 53 4.3 13.0 0.00 0.00 0.00 72 1020.6
20260510081016 54 63 7.8 13.9 0.00 0.00 0.00 71 1020.2
20260510080016 54 62 4.3 13.9 0.00 0.00 0.00 71 1019.8
20260510075016 55 71 7.0 17.4 0.00 0.00 0.00 69 1019.8
20260510074016 55 72 6.1 13.9 0.00 0.00 0.00 69 1019.7
20260510073016 55 57 7.8 15.6 0.00 0.00 0.00 69 1020.0
20260510072036 55 52 7.0 14.8 0.00 0.00 0.00 69 1019.8
20260510071015 55 49 8.7 21.7 0.00 0.00 0.00 69 1019.9
20260510070016 55 55 7.8 19.1 0.00 0.00 0.00 69 1020.0
20260510065016 55 50 9.6 18.2 0.00 0.00 0.00 68 1019.9
20260510064016 55 52 9.6 20.9 0.00 0.00 0.00 67 1020.0
20260510063015 56 39 8.7 18.2 0.00 0.00 0.00 66 1020.0
20260510062015 56 40 10.4 20.9 0.00 0.00 0.00 65 1019.9
20260510061016 56 31 8.7 20.0 0.00 0.00 0.00 63 1019.4
20260510060036 57 24 8.7 20.9 0.00 0.00 0.00 62 1019.4
20260510055016 57 19 8.7 23.5 0.00 0.00 0.00 60 1019.0
20260510054015 58 35 10.4 23.5 0.00 0.00 0.00 57 1018.5
20260510053016 61 30 9.6 26.1 0.00 0.00 0.00 51 1018.4
20260510052016 61 41 10.4 20.0 0.00 0.00 0.00 53 1017.7
20260510051016 61 15 7.0 14.8 0.00 0.00 0.00 54 1017.6
20260510050014 61 51 7.8 15.6 0.00 0.00 0.00 54 1017.0
20260510045037 62 26 7.0 14.8 0.00 0.00 0.00 53 1016.6
20260510044016 62 360 6.1 12.2 0.00 0.00 0.00 53 1016.7
20260510043016 63 360 7.0 10.4 0.00 0.00 0.00 52 1016.8
20260510042016 64 360 6.1 12.2 0.00 0.00 0.00 51 1016.1
20260510041016 64 360 4.3 13.0 0.00 0.00 0.00 51 1015.1
20260510040016 65 360 5.2 11.3 0.00 0.00 0.00 50 1014.7
20260510035016 65 49 3.5 10.4 0.00 0.00 0.00 49 1014.4
20260510034016 66 82 4.3 16.5 0.00 0.00 0.00 48 1014.6
20260510033016 67 49 6.1 11.3 0.00 0.00 0.00 47 1014.5
20260510032036 67 62 7.0 13.0 0.00 0.00 0.00 46 1014.2
20260510031016 68 67 6.1 11.3 0.00 0.00 0.00 45 1014.1
20260510030016 69 85 3.5 17.4 0.00 0.00 0.00 44 1013.9
20260510025016 71 90 7.0 15.6 0.00 0.00 0.00 42 1013.5
20260510024016 73 78 7.8 17.4 0.00 0.00 0.00 37 1013.6
20260510023016 73 67 7.0 16.5 0.00 0.00 0.00 33 1013.1
20260510022016 74 360 3.5 7.8 0.00 0.00 0.00 30 1012.8
20260510021016 74 33 2.6 8.7 0.00 0.00 0.00 30 1012.6
20260510020015 74 33 2.6 7.0 0.00 0.00 0.00 30 1012.5
20260510015015 75 11 3.5 8.7 0.00 0.00 0.00 30 1012.3
20260510014015 75 30 3.5 9.6 0.00 0.00 0.00 30 1012.0
20260510013015 76 26 4.3 10.4 0.00 0.00 0.00 29 1011.7
20260510012057 76 32 2.6 9.6 0.00 0.00 0.00 29 1011.4
20260510011015 77 27 5.2 13.0 0.00 0.00 0.00 28 1011.3
20260510010015 78 18 4.3 12.2 0.00 0.00 0.00 28 1011.1
20260510005015 79 19 4.3 10.4 0.00 0.00 0.00 27 1011.0
20260510004014 79 31 4.3 12.2 0.00 0.00 0.00 26 1010.5
20260510003014 80 25 4.3 10.4 0.00 0.00 0.00 25 1010.1
20260510002017 80 45 5.2 13.9 0.00 0.00 0.00 25 1009.7
20260510001016 80 24 5.2 14.8 0.00 0.00 0.00 25 1009.9
20260510000016 81 28 5.2 13.0 0.00 0.00 0.00 24 1009.7
20260509235017 81 3 2.6 9.6 0.00 0.00 0.00 23 1009.7
20260509234017 81 13 3.5 12.2 0.00 0.00 0.00 22 1009.4
20260509233015 82 35 5.2 14.8 0.00 0.00 0.00 21 1009.6
20260509232035 84 33 4.3 13.9 0.00 0.00 0.00 22 1009.7
20260509231016 84 47 6.1 9.6 0.00 0.00 0.00 20 1009.6
20260509230016 84 5 4.3 8.7 0.00 0.00 0.00 19 1009.6
20260509225037 84 21 3.5 11.3 0.00 0.00 0.00 19 1009.6
20260509224057 85 358 4.3 10.4 0.00 0.00 0.00 18 1009.6
20260509223016 84 334 4.3 11.3 0.00 0.00 0.00 18 1009.7
20260509222016 84 29 6.1 14.8 0.00 0.00 0.00 18 1009.7
20260509221016 84 358 3.5 12.2 0.00 0.00 0.00 18 1009.9
20260509220016 85 17 4.3 13.9 0.00 0.00 0.00 18 1010.1
20260509215016 85 336 5.2 12.2 0.00 0.00 0.00 17 1010.0
20260509214016 85 354 6.1 14.8 0.00 0.00 0.00 17 1010.2
20260509213016 85 342 4.3 11.3 0.00 0.00 0.00 17 1010.3
20260509212016 85 334 6.1 12.2 0.00 0.00 0.00 16 1010.3
20260509211016 85 347 5.2 12.2 0.00 0.00 0.00 17 1010.2
20260509210016 85 330 6.1 10.4 0.00 0.00 0.00 17 1010.3
20260509205016 85 345 5.2 12.2 0.00 0.00 0.00 17 1010.3
20260509204016 85 341 4.3 12.2 0.00 0.00 0.00 18 1010.5